Location: Jaz?rat F?lah
(24.0167°N, 32.8833°E)
Time: 04:29:21
(UTC+00:00)

Daily predictions for brighter satellites

Satellite Brightness Start Highest point End
(mag) Time Altitude Azimuth Time Altitude Azimuth Time Altitude Azimuth
CZ-3 R/B 4.2 00:50:27 51° SSW 00:57:01 60° SSE 01:08:19 10° E
USA 234 3.7 01:35:39 10° ESE 01:41:59 55° NE 01:43:30 46° N
Meteosat 1 Rocket2 4.4 01:49:04 66° NNW 01:49:27 67° N 01:55:36 10° E
Cosmos 1745 Rocket 4.4 01:45:17 10° N 01:51:32 63° E 01:57:48 10° SSE
Mugunghwa Rocket 4.2 01:53:20 61° SSE 01:53:20 61° SSE 01:58:54 10° ESE
CZ-4C R/B 2.8 01:57:44 40° ESE 01:57:46 40° ESE 02:02:21 10° NE
ATLAS 2AS CENTAUR R/B 4.5 01:54:00 10° S 02:00:42 33° ESE 02:07:32 10° NE
ADEOS 4.5 02:04:21 10° NNE 02:09:22 46° E 02:14:21 10° S
OAO 3 Rocket 4.4 02:12:36 32° N 02:12:36 32° N 02:16:05 10° NE
Cosmos 2344 4.3 02:15:32 31° NW 02:15:32 31° NW 02:20:58 10° N
Cosmos 2322 Rocket 2.5 02:09:07 10° N 02:14:44 65° ENE 02:20:22 10° SSE
X-37B 3.3 02:16:02 17° NE 02:16:02 17° NE 02:17:47 10° E
Exosat Rocket 4.3 02:08:21 10° NNW 02:17:12 68° WSW 02:23:20 10° S
Milstar 3 Cent rocket 2.0 02:20:18 58° NNW 02:20:29 58° N 02:25:03 10° ENE
Landsat 5 3.9 02:16:57 10° SSE 02:19:57 49° SE 02:19:57 49° SE
Cosmos 1386 Rocket 4.4 02:21:30 10° NNW 02:27:45 63° W 02:33:54 10° S
Cosmos 1302 Rocket 3.9 02:27:22 51° NW 02:28:31 66° WSW 02:33:43 10° S
Cosmos 883 Rocket 4.5 02:28:37 39° SW 02:30:34 53° W 02:36:33 10° N
H-2A R/B 3.0 02:26:33 10° SSE 02:30:43 47° ENE 02:34:48 10° N
Cosmos 1933 4.0 02:26:54 10° S 02:30:47 54° E 02:34:43 10° NNE
Sakura Rocket 3.4 02:31:59 43° N 02:31:59 43° N 02:35:20 10° ENE
Cosmos 1500 Rocket 3.4 02:28:01 10° N 02:32:22 79° W 02:36:46 10° S
Skynet4D Del rocket 3.4 02:31:22 56° W 02:32:32 84° NNW 02:37:54 10° ENE
Orbus 7S 3.8 02:37:25 49° SE 02:37:25 49° SE 02:39:28 10° E
SL-16 R/B 2.3 02:37:39 29° NW 02:40:16 51° WSW 02:45:42 10° S
Cosmos 2315 Rocket 4.0 02:36:19 10° SSW 02:42:20 52° W 02:48:21 10° N
Cosmos 2251 Rocket 4.1 02:43:17 35° WNW 02:43:17 35° WNW 02:47:48 10° N
SJ-12 3.8 02:39:34 10° NNE 02:43:37 84° ESE 02:47:39 10° S
Cosmos 1151 Rocket 3.8 02:42:15 10° S 02:46:28 52° E 02:50:39 10° NNE
SeaSat 1 4.0 02:44:41 10° SE 02:49:08 35° ENE 02:53:35 10° N
Alouette 2 Rocket 4.1 02:45:59 10° SSW 02:50:27 66° W 02:57:19 10° N
ATLAS 5 CENTAUR R/B 1.1 02:49:36 44° WSW 02:50:34 62° WNW 02:54:29 10° NNE
CZ-4B R/B 4.0 02:48:29 10° SE 02:51:00 21° ENE 02:53:27 10° NNE
ATLAS CENTAUR R/B 3.4 02:56:40 16° SW 02:56:40 16° SW 02:58:07 10° SSW
Fermi 3.6 02:55:50 38° W 02:57:20 84° S 03:01:22 10° ESE
ASTRO E2 3.4 02:56:41 26° NW 02:58:34 47° NNE 03:02:25 10° E
CZ-4B R/B 3.3 02:55:54 10° NNE 03:00:25 74° ESE 03:04:53 10° S
Cosmos 2237 4.1 02:56:41 10° NNW 03:02:21 68° WSW 03:07:58 10° S
Meteor 2-17 Rocket 4.3 02:58:18 10° NNW 03:04:17 67° W 03:10:16 10° S
Cosmos 1328 Rocket 3.4 03:11:34 10° S 03:15:52 77° W 03:20:09 10° N
Cosmos 407 Rocket 3.6 03:10:57 10° SSW 03:16:00 51° WNW 03:21:02 10° N
MOS 1 Rocket 3.1 03:11:47 10° SSE 03:16:03 88° ENE 03:20:25 10° N
CZ-3C R/B 1.7 03:16:56 12° SSW 03:17:38 14° S 03:19:00 10° SSE
Meteor 1-31 Rocket 3.9 03:15:51 10° NNW 03:18:51 22° WNW 03:21:51 10° SW
Cosmos 1812 4.4 03:16:48 10° SSE 03:20:21 38° E 03:23:55 10° NNE
COSMO-SKYMED 1 2.5 03:17:54 10° S 03:22:14 84° WSW 03:26:35 10° NNW
Cosmos 2074 Rocket 4.3 03:16:24 10° N 03:22:35 72° E 03:28:45 10° S
Cosmos 1190 Rocket 4.0 03:18:13 10° SSW 03:23:26 60° WNW 03:28:41 10° N
H-2A R/B 2.8 03:21:10 10° N 03:24:54 52° WNW 03:28:37 10° SSW
USA 234 4.2 03:19:38 10° S 03:24:59 27° WSW 03:30:21 10° WNW
Cosmos 2333 4.5 03:19:19 10° NNW 03:25:06 77° ENE 03:30:51 10° SSE
Cosmos 1782 2.9 03:23:33 10° SSW 03:27:21 48° W 03:31:10 10° N
Cosmos 2360 Rocket 2.4 03:22:17 10° NNW 03:27:41 47° WSW 03:33:03 10° S
Cosmos 676 Rocket 4.1 03:24:20 10° SSW 03:29:39 85° ESE 03:34:59 10° NNE
Cosmos 1437 Rocket 3.3 03:26:44 10° SSW 03:30:35 40° W 03:34:26 10° N
Meteor 1-26 Rocket 4.4 03:26:19 10° SSW 03:31:39 48° W 03:37:10 10° N
Cosmos 1805 Rocket 4.5 03:28:48 10° NNW 03:32:33 27° W 03:36:17 10° SSW
Iridium 51 4.4 03:30:11 10° NNW 03:33:38 41° W 03:36:55 10° SSW
GMS 1 Rocket B 4.5 03:30:27 12° W 03:34:00 60° SSW 03:38:13 10° ESE
CENTAUR R/B 4.0 03:27:12 10° NNW 03:35:42 58° ENE 03:44:24 10° SE
CSL-04 DEB 4.5 03:31:50 10° S 03:35:49 55° WSW 03:39:43 10° NNW
NOSS 3-4 (A) 4.3 03:32:27 10° WSW 03:37:10 25° NW 03:42:00 10° N
NOSS 3-4 (C) 4.3 03:32:30 10° WSW 03:37:14 26° NW 03:42:06 10° N
Cosmos 2227 Rocket 2.8 03:33:05 10° S 03:38:40 64° ESE 03:44:17 10° NNE
DELTA 4 R/B 2.6 03:38:13 10° W 03:40:22 17° SW 03:41:46 10° SSE
YAOGAN 6 2.8 03:38:24 10° N 03:41:43 43° WNW 03:45:01 10° SSW
Cosmos 2333 Rocket 2.3 03:36:50 10° NNW 03:42:37 87° ENE 03:48:22 10° SSE
PSLV R/B 3.7 03:38:45 10° N 03:42:40 88° W 03:46:27 10° SSW
Cosmos 2184 Rocket 4.0 03:38:31 10° N 03:44:50 75° W 03:51:11 10° S
